Find Starlink 35538

NORAD ID: 66475 Int'l Des: 2025-262 Owner: SPXS Country: US Constellation: starlink operational
LEOCIRCULAR

当前视图

正在加载3D地球...

关于 Starlink 35538

正在加载描述...

即将过境

Passes for default location (London). Set your location on the main map for personalized predictions.

高度历史

Loading altitude history...

两行轨道根数

1 66475U 25262V 26146.24155284 .00015709 00000-0 57897-3 0 9996
2 66475 43.0014 218.4818 0000808 280.6504 79.4257 15.27591006 30761
Epoch: May 26, 2026 • Age: 10 hours

当前状态

高度 485.8 km
速度 7.63 km/s
星下点 39.53°N, 160.94°E
发射日期 Nov 15, 2025
运行时间 0.5 years
类型 internet

技术详情

分类 Payload
质量 575.00 kg
干质量 530.00 kg
总质量 575.00 kg
长度 0.30 m
直径 4.10 m
跨度 29.00 m
形状 Box + pan
制造商 SPXS
平台类型 Starlink V2MO
阶段状态 In Orbit
所有者/国家 SPXS/US

Most Searched